Location: Chilton Park
(37.7711°N, 100.0276°W)
Time: 20:20:26
(UTC+00:00)

SKYMED 2 - Pass Details

Date: 08 December 2021
Orbit: 621 x 623 km, 97.9° (Epoch: 17 January)

Event Time Altitude Azimuth Distance (km) Brightness Sun altitude
Rises 12:26:17 0° 185° (S) 2,888 7.2 -14.8°
Reaches altitude 10° 12:28:34 10° 193° (SSW) 1,987 6.2 -14.4°
Maximum altitude 12:32:37 38° 262° (W) 948 4.1 -13.6°
Enters shadow 12:36:24 12° 329° (NNW) 1,895 5.6 -12.9°
